SCP
1 1 1 1 0 0 0 0 0 0 0 0 0 0 0 0 0 0 0 0 1 1 1 0 0 0 0 0 0 0 0 0 1 1 1 1 1 0 0 0 0 0 0 0 0 0 0 0 0
1 1 1 1 0 0 0 0 0 0 0 0 0 0 0 0 0 0 0 0 1 1 0 0 0 0 0 0 0 0 0 1 1 1 1 1 1 1 0 0 0 0 0 0 0 0 0 0 0
1 1 1 0 0 0 0 0 0 0 0 0 0 0 0 0 0 0 0 0 0 1 1 0 0 0 0 0 0 0 0 1 1 1 1 1 1 1 1 1 1 1 0 0 0 0 0 0 0
1 1 0 0 0 0 0 0 0 0 0 0 0 0 0 0 0 0 0 0 0 1 1 1 0 0 0 0 0 0 1 1 1 1 1 1 1 1 1 1 1 1 1 0 0 0 0 0 0
0 0 0 0 0 0 0 0 0 0 0 0 0 0 0 0 0 0 0 0 0 1 1 1 1 1 0 0 1 1 1 1 1 0 1 1 1 1 1 1 1 1 1 0 0 0 0 0 0
0 0 0 0 0 0 0 0 0 0 0 0 0 0 0 0 0 0 0 0 0 0 0 0 1 1 1 1 1 1 1 0 1 1 1 1 1 0 0 0 1 1 0 0 0 0 0 0 0
0 0 0 0 0 0 0 0 0 0 0 0 0 0 0 0 0 0 0 0 0 0 0 0 0 0 1 1 1 1 1 1 1 1 1 1 1 0 0 0 0 0 0 0 0 0 0 0 0
0 0 0 0 0 0 0 0 0 0 0 0 0 0 0 0 0 0 0 0 0 0 0 0 0 0 0 1 1 1 1 1 1 1 1 1 1 0 0 0 0 0 0 0 0 0 0 0 0
0 0 0 0 0 0 0 0 0 0 0 0 0 0 0 0 0 0 0 0 0 0 0 0 0 0 0 0 0 0 0 0 0 0 0 0 0 0 0 0 0 0 0 0 0 0 0 0 0
0 0 0 0 0 0 0 0 0 0 0 0 0 0 0 0 1 1 0 0 0 0 0 0 0 1 1 1 0 0 0 0 0 0 0 0 0 0 0 0 0 0 0 0 0 0 0 0 0
0 0 0 0 0 0 0 0 0 0 0 0 0 0 0 0 1 1 1 0 0 1 0 0 0 1 1 1 1 0 0 0 0 0 0 0 0 0 0 0 0 0 0 0 0 0 0 0 0
0 0 0 0 0 0 0 0 0 0 0 0 0 0 0 1 1 1 1 1 1 1 1 0 0 1 1 1 1 0 0 0 0 0 0 0 0 0 0 0 0 0 0 0 0 0 0 0 0
0 0 0 0 0 0 0 0 0 0 0 0 0 0 0 1 1 1 1 1 1 1 1 1 0 1 1 1 1 0 0 0 0 0 0 0 0 0 0 0 0 0 0 0 0 0 0 0 0
0 0 0 0 0 0 0 0 0 0 0 0 0 0 0 1 1 1 1 1 1 1 1 1 0 0 1 1 1 1 1 1 0 0 0 0 0 0 0 0 0 0 0 0 0 0 0 0 0
0 0 0 0 0 0 0 0 0 0 0 0 0 0 0 0 1 1 1 2 2 1 1 1 1 0 1 1 1 1 1 1 0 0 0 0 0 0 0 0 0 0 0 0 0 0 0 0 0
0 0 0 0 0 0 0 0 0 0 0 0 0 0 0 0 1 1 1 2 2 2 2 1 1 1 1 1 1 1 1 0 0 0 0 0 0 0 0 0 0 0 0 0 0 0 0 0 0
0 0 0 0 0 0 0 0 0 0 0 0 0 0 0 0 0 1 1 2 2 2 2 2 2 1 1 1 1 1 1 1 0 0 0 0 0 0 0 0 0 0 0 0 0 0 0 0 0
0 0 0 0 0 0 0 0 0 0 0 0 0 0 0 0 0 1 1 1 2 2 2 2 2 2 2 2 2 1 1 1 1 1 0 0 0 0 0 0 0 0 0 0 0 0 0 0 0
0 0 0 0 0 0 0 0 0 0 0 0 0 0 0 0 1 1 1 2 2 2 2 2 3 3 3 3 2 2 1 1 1 1 0 0 0 0 1 0 0 0 0 0 0 1 0 0 0
0 0 0 0 0 0 0 0 0 0 0 0 0 0 0 0 1 1 1 2 2 2 2 2 3 3 3 3 2 2 1 1 1 1 1 0 0 1 1 0 0 0 1 1 0 1 1 0 0
0 0 0 0 0 0 0 0 0 0 0 0 0 0 0 0 1 1 1 1 1 1 1 2 2 2 2 2 2 1 1 1 1 1 1 0 0 1 1 0 0 1 1 1 1 1 1 1 0
0 0 0 0 0 0 0 0 0 0 0 0 0 0 0 0 0 1 1 1 1 1 1 1 1 1 1 1 1 1 1 1 1 1 1 1 1 0 0 0 0 1 1 1 1 1 1 1 1
0 0 0 0 0 0 0 0 0 0 0 0 0 0 0 0 0 1 1 1 1 1 1 1 1 1 1 1 1 1 1 1 0 1 1 1 1 1 1 1 1 1 1 1 1 0 0 0 0
0 0 0 0 0 0 0 0 0 0 0 0 0 0 0 0 0 1 1 1 1 1 1 1 1 1 1 1 1 1 0 0 0 1 1 1 1 1 1 1 1 1 1 1 0 0 0 0 0
0 0 0 0 0 0 0 0 0 0 0 0 0 0 0 0 1 1 1 2 2 2 2 1 1 1 1 1 0 0 0 0 1 1 1 1 1 1 1 1 0 1 1 1 0 0 0 0 0
0 0 0 0 0 0 0 0 0 0 0 0 0 0 0 0 1 1 1 2 2 2 2 2 1 1 1 1 0 0 0 1 1 1 1 1 1 1 1 1 0 0 0 0 1 1 0 0 0
0 0 0 0 0 0 0 0 0 0 0 0 0 0 0 0 1 1 1 2 2 2 2 2 1 1 1 1 1 1 1 1 1 1 1 1 1 1 1 1 1 0 0 0 1 1 1 1 0
0 0 0 0 0 0 0 0 0 0 0 0 0 0 0 0 1 1 1 2 2 2 2 1 1 1 1 1 1 1 1 1 1 1 1 1 1 1 1 1 1 0 0 1 1 1 1 1 0
0 0 0 0 0 0 0 0 0 0 0 0 0 0 0 0 1 1 2 2 2 2 1 1 1 1 1 1 1 1 1 1 1 1 1 1 1 1 1 1 1 0 0 1 1 1 1 0 0
0 0 0 0 0 0 0 0 0 0 0 0 0 0 0 0 1 1 2 2 2 1 1 1 1 1 1 1 1 1 1 1 1 1 1 0 1 1 1 1 0 0 0 0 0 0 0 0 0
Wind_Speed
12 13 9 3 3 3 9 9 10 10 10 9 8 8 13 13 10 7 4 6 10 10 11 10 8 8 8 8 8 8 9 11 13 15 15 15 15 14 12 11 10 11 12 11 12 12 13 13 13
12 9 5 3 3 1 10 8 8 9 8 8 7 9 11 12 13 10 5 9 10 9 8 10 10 9 9 9 9 10 11 12 14 15 15 15 15 14 13 12 12 12 12 12 12 12 13 13 12
13 10 5 4 2 8 9 7 6 9 7 8 7 8 9 7 11 8 9 11 10 10 10 11 10 9 9 10 11 12 12 13 14 15 15 14 14 14 14 13 13 12 12 13 12 13 13 12 11
7 6 6 3 9 9 7 5 4 5 4 5 7 7 10 10 8 11 12 11 12 11 11 11 10 10 10 11 12 13 13 13 13 14 14 13 13 14 14 14 13 13 13 13 13 12 13 11 10
5 5 5 3 9 5 5 6 2 2 3 4 5 8 9 11 14 13 12 11 12 11 12 11 11 11 11 12 13 14 13 13 14 14 14 14 14 13 13 13 13 13 13 13 13 12 12 11 9
3 3 2 2 7 5 7 10 10 11 4 5 4 8 7 11 12 11 10 10 12 10 12 12 12 12 12 12 13 13 13 13 13 14 14 14 14 12 12 12 12 13 13 13 12 12 12 10 8
3 4 2 4 6 5 10 12 10 9 8 8 5 7 7 12 12 11 9 11 11 11 13 13 12 11 12 14 13 12 12 13 13 14 14 14 14 13 12 11 12 13 13 13 12 12 10 9 6
3 6 6 5 5 6 8 11 11 9 5 5 3 5 8 11 13 11 10 10 11 11 12 13 13 12 11 10 12 12 12 13 13 14 14 14 13 12 12 11 12 13 13 12 11 11 10 8 4
4 3 3 3 5 5 8 9 10 5 2 2 1 8 14 14 13 11 9 8 8 9 12 11 11 12 12 12 11 10 12 12 13 12 15 14 8 8 8 12 11 12 12 11 11 11 10 8 4
4 2 2 4 6 8 9 11 8 6 8 6 5 9 9 11 11 10 9 9 9 7 11 12 10 12 10 10 9 7 7 8 8 8 9 6 5 5 10 11 12 13 12 11 10 11 10 6 3
4 2 2 3 6 8 10 12 11 3 2 2 2 9 7 9 9 10 9 9 9 8 8 10 10 11 10 8 6 4 5 6 7 11 9 6 5 4 6 5 7 7 9 7 7 7 6 4 2
5 1 3 6 7 6 9 11 10 6 2 2 2 8 10 8 10 11 10 10 9 9 8 10 11 12 11 9 7 5 4 4 3 5 8 5 3 4 6 5 7 7 6 6 5 3 4 4 5
6 1 1 1 4 7 7 10 6 6 6 5 1 3 9 11 12 12 11 12 11 11 9 8 9 13 12 10 6 6 5 5 5 3 4 5 3 3 3 3 2 2 3 5 5 4 5 7 7
3 4 5 5 8 6 10 11 6 3 2 5 7 5 5 10 10 12 12 12 13 13 12 9 8 10 12 11 8 6 6 4 4 3 3 4 3 3 2 2 2 1 2 2 2 4 6 6 6
6 9 10 9 5 5 7 10 4 1 1 5 7 7 3 3 7 8 11 10 12 14 14 12 9 9 10 12 9 7 6 6 5 4 5 6 5 4 4 2 2 1 2 7 6 2 5 7 5
10 11 10 8 3 2 5 6 7 5 5 2 4 6 3 3 4 5 8 12 11 13 14 14 10 9 8 8 7 6 5 5 5 4 4 7 7 6 4 3 1 2 2 4 7 1 3 4 4
11 10 9 8 4 3 5 7 9 10 8 5 4 3 2 2 3 5 2 7 9 7 10 14 12 9 8 8 6 5 6 6 4 4 4 4 5 6 5 3 2 5 3 4 6 4 4 2 3
9 10 8 9 10 8 6 7 10 11 7 6 3 3 2 5 7 8 9 3 7 9 8 9 7 7 8 7 5 3 4 4 4 3 3 5 4 5 6 2 3 4 2 4 7 8 6 3 3
8 14 13 13 13 10 9 10 10 11 9 6 2 4 5 7 6 6 7 5 3 7 6 8 7 2 4 5 5 4 2 1 2 3 4 5 5 6 7 3 3 3 1 2 8 9 4 5 3
11 14 15 14 12 8 9 13 13 10 2 7 5 4 8 7 4 6 7 6 8 9 8 9 7 5 5 5 4 3 2 2 3 3 4 4 5 5 2 9 6 5 3 3 7 10 7 5 5
12 13 14 14 12 11 14 15 10 1 7 7 3 5 6 2 1 4 4 4 5 7 6 5 6 5 5 6 4 3 1 2 3 4 3 4 6 12 9 5 5 4 2 1 3 5 6 4 4
13 13 15 15 11 9 11 10 11 4 6 6 5 5 7 4 3 7 5 2 2 5 6 6 6 6 5 5 5 5 2 2 3 3 3 2 2 6 1 5 7 7 3 4 4 3 4 5 3
14 14 15 12 10 13 14 12 5 3 6 6 6 4 4 5 4 6 9 9 7 7 6 6 7 7 7 6 6 5 3 3 1 1 4 4 2 4 6 4 5 7 5 3 2 1 3 5 4
10 12 12 12 10 13 14 9 4 2 7 5 3 3 4 4 4 5 8 8 9 8 7 6 6 7 7 7 7 7 5 2 3 4 1 2 2 2 2 2 2 3 5 4 3 2 2 2 4
9 9 7 8 7 8 7 5 4 8 9 4 2 3 3 2 2 3 8 8 7 9 8 7 6 6 7 7 8 8 6 5 4 4 1 2 2 1 3 2 2 3 4 6 4 3 3 4 4
11 12 9 5 4 4 4 6 2 11 8 4 2 3 1 2 3 2 3 7 6 7 8 8 7 7 8 7 7 7 7 4 4 6 5 4 4 5 6 6 6 5 4 5 6 6 6 6 6
11 11 11 11 12 11 9 5 8 8 7 6 4 3 5 3 5 5 3 6 6 5 5 7 8 8 9 8 7 6 6 4 4 6 5 4 5 6 7 7 7 6 6 6 6 5 6 5 3
12 7 4 3 6 9 9 6 2 5 1 1 5 5 3 2 3 6 6 6 6 5 4 4 5 7 8 8 6 4 2 2 4 6 4 5 5 5 6 4 3 4 4 4 3 2 3 5 4
11 10 7 5 5 6 8 5 2 2 4 2 2 2 2 1 1 5 7 7 6 7 7 5 4 4 6 7 6 5 3 3 3 4 4 3 3 2 4 4 4 5 4 5 5 4 4 4 4
11 10 10 8 9 8 5 7 3 1 3 3 4 3 3 2 1 3 7 7 7 7 7 7 6 5 5 6 7 6 5 4 1 5 6 3 0 1 2 4 5 5 5 6 6 7 7 7 7
Wind_Direction
269 250 248 259 246 234 71 59 52 40 28 19 36 43 62 53 41 78 138 133 112 115 124 137 140 137 135 136 135 132 125 121 121 124 123 122 117 113 112 112 102 92 86 90 90 83 76 67 59
281 279 260 234 249 79 72 58 43 47 32 2 35 54 72 64 82 101 130 114 122 127 129 124 133 138 141 139 134 128 124 121 121 121 120 118 117 115 114 110 101 97 96 98 90 83 76 67 57
260 264 260 239 25 49 59 50 30 37 23 10 25 45 61 57 91 115 128 132 128 120 114 114 132 137 139 138 133 126 123 123 119 120 122 121 119 116 111 103 100 96 97 102 90 82 74 66 57
270 258 240 245 67 50 48 70 41 36 30 19 34 66 71 57 90 122 135 137 123 123 120 122 131 131 133 134 132 127 125 124 121 125 126 121 113 109 107 104 99 93 94 97 90 81 75 68 58
252 261 325 14 81 69 51 27 15 57 79 37 47 102 92 81 103 125 139 133 127 128 125 130 131 130 132 131 129 129 131 128 128 132 131 121 113 108 105 101 98 95 95 97 91 81 77 69 58
309 294 67 275 80 68 42 6 13 9 26 78 68 108 103 113 119 134 138 135 132 136 130 129 132 131 131 129 127 129 131 129 134 135 132 125 116 110 105 103 102 101 101 103 96 87 84 79 71
297 289 243 97 59 47 30 358 21 5 10 48 12 116 131 133 134 145 145 140 142 144 142 140 143 135 132 128 128 130 131 132 133 132 133 128 121 119 115 112 111 111 111 111 105 98 98 93 80
297 298 338 40 42 33 18 357 12 28 352 58 350 98 132 136 145 149 152 152 156 160 154 145 149 144 140 131 131 133 134 136 136 135 134 129 129 131 130 118 118 120 120 119 119 116 118 115 104
266 293 327 22 21 8 4 358 355 350 2 72 125 89 131 145 146 151 157 161 162 159 143 148 158 148 144 139 138 140 139 140 139 140 146 148 154 153 149 120 125 127 132 135 138 137 140 143 155
241 306 13 15 355 358 345 342 335 357 8 17 61 96 118 140 150 159 165 169 161 155 147 157 145 137 143 137 143 150 150 154 167 156 169 179 158 157 128 139 141 143 148 153 158 161 166 181 184
255 300 355 341 22 351 330 330 329 357 0 359 96 133 150 148 160 172 180 176 160 160 160 148 149 146 141 139 148 159 151 177 184 163 177 163 168 144 138 162 155 157 161 173 167 183 197 202 85
240 116 2 345 12 322 323 322 323 326 330 294 156 143 156 167 177 186 186 174 163 161 167 161 163 150 156 149 146 168 160 178 172 168 168 164 177 181 171 174 175 173 183 179 174 201 176 133 103
273 204 216 263 286 299 329 324 317 318 308 304 293 191 177 177 184 189 187 174 166 162 170 179 170 160 160 147 152 166 160 165 165 181 169 171 168 191 151 142 151 154 171 161 155 172 115 84 68
308 312 293 278 276 326 350 311 289 268 281 304 296 277 227 181 191 185 186 177 169 171 174 185 185 166 158 150 165 163 152 152 160 178 182 187 170 167 136 75 148 154 112 150 120 128 113 93 85
290 276 271 255 252 26 331 292 224 247 290 297 307 309 318 173 189 194 183 177 176 174 177 178 187 179 164 156 160 148 153 166 167 187 185 198 173 168 141 142 213 163 135 109 80 311 112 114 122
262 259 266 265 218 139 262 309 330 309 269 273 302 301 324 325 273 229 182 169 184 178 177 171 179 179 163 147 143 147 161 145 151 175 198 198 172 170 151 140 211 85 46 120 136 180 103 112 121
259 258 268 288 301 209 249 290 300 285 270 258 254 272 248 235 310 336 321 165 173 175 182 165 170 172 154 133 135 138 147 141 158 171 204 189 179 169 146 156 188 139 168 129 118 110 79 85 111
294 299 282 301 310 286 273 283 287 294 292 289 279 273 303 52 36 357 329 290 159 159 193 158 157 148 127 119 127 99 119 151 156 165 200 171 197 182 131 148 223 138 143 129 134 123 124 197 162
286 281 293 299 294 284 282 290 293 291 276 271 314 359 19 49 41 14 333 310 82 98 91 104 94 90 115 106 96 92 102 150 147 157 217 191 192 165 133 166 226 128 109 141 118 110 139 224 125
270 286 294 295 296 290 294 290 279 274 274 69 26 4 43 32 27 46 0 20 61 79 88 112 122 127 112 107 109 128 169 193 174 176 228 218 144 97 178 197 168 143 182 184 131 136 178 185 145
269 278 286 293 302 305 287 276 268 158 108 120 148 106 99 95 43 83 33 21 69 94 102 105 106 103 109 122 125 147 191 243 179 182 222 246 162 163 204 193 130 120 125 167 164 157 149 156 169
269 276 284 286 287 286 285 294 286 205 146 139 120 110 119 140 184 143 147 171 154 133 134 135 139 148 152 149 144 140 132 228 181 180 200 242 215 117 105 248 144 136 171 200 184 172 150 148 183
270 274 276 283 283 279 274 271 271 126 119 98 97 113 133 164 199 161 160 171 182 167 167 171 157 151 159 166 158 149 164 220 297 247 187 197 207 126 186 228 141 147 152 174 175 183 160 152 175
269 258 255 255 258 261 262 261 285 91 99 94 116 151 150 162 183 167 152 161 170 166 164 165 155 149 162 170 163 167 174 139 14 336 49 64 63 39 355 10 86 147 156 185 196 213 235 187 185
235 239 242 233 216 251 249 255 271 95 96 90 52 32 48 117 138 165 163 164 163 161 159 161 162 160 167 177 174 170 164 147 160 252 217 152 129 164 275 266 247 233 191 182 176 207 247 241 223
208 228 249 274 274 278 256 257 132 103 101 106 112 105 211 166 124 170 187 162 159 159 162 163 173 175 179 186 180 167 166 167 187 213 217 193 190 199 214 234 232 234 218 195 186 194 209 230 226
253 230 252 283 295 296 283 283 108 114 135 146 149 184 207 185 157 166 173 151 150 155 162 173 181 185 185 189 180 174 180 176 232 244 227 202 203 208 205 222 226 222 211 211 210 191 193 213 224
264 274 234 261 292 290 294 303 74 130 116 214 209 200 195 200 179 157 148 143 146 152 171 196 189 186 189 185 170 161 137 76 282 254 235 207 197 192 181 201 239 248 213 197 209 228 204 195 189
224 249 266 270 265 276 289 302 65 207 214 224 267 205 181 262 359 139 136 141 154 166 177 186 178 159 164 165 149 127 105 74 332 308 266 214 182 180 169 185 226 242 220 202 194 202 201 204 196
261 234 238 245 251 260 265 277 306 271 283 255 243 224 193 149 66 113 138 152 167 171 170 171 161 149 139 137 137 137 138 140 209 289 297 313 222 196 213 218 221 228 222 212 201 196 199 199 201